Time,TemperatureF,DewpointF,PressureIn,WindDirection,WindDirectionDegrees,WindSpeedMPH,WindSpeedGustMPH,Humidity,HourlyPrecipIn,Conditions,Clouds,dailyrainin,SoftwareType,DateUTC
2013-02-04 00:02:00,18.6,14.3,30.03,WSW,242,2.0,3.0,83,0.00,,,0.00,Wunderground v.1.13,2013-02-04 05:02:00,
2013-02-04 00:04:00,18.5,14.2,30.03,WSW,242,2.0,3.0,83,0.00,,,0.00,Wunderground v.1.13,2013-02-04 05:04:00,
2013-02-04 00:06:00,18.5,14.2,30.03,WSW,242,2.0,2.0,83,0.00,,,0.00,Wunderground v.1.13,2013-02-04 05:06:00,
2013-02-04 00:12:00,18.5,14.2,30.03,WSW,246,1.0,2.0,83,0.00,,,0.00,Wunderground v.1.13,2013-02-04 05:12:00,
2013-02-04 00:17:00,18.4,14.4,30.03,SSW,206,1.0,5.0,84,0.00,,,0.00,Wunderground v.1.13,2013-02-04 05:17:00,
2013-02-04 00:23:00,18.4,14.4,30.03,SW,228,2.0,4.0,84,0.00,,,0.00,Wunderground v.1.13,2013-02-04 05:23:00,
2013-02-04 00:29:00,18.3,14.3,30.03,SW,225,1.0,2.0,84,0.00,,,0.00,Wunderground v.1.13,2013-02-04 05:29:00,
2013-02-04 00:34:00,18.3,14.3,30.03,SW,225,1.0,4.0,84,0.00,,,0.00,Wunderground v.1.13,2013-02-04 05:34:00,
2013-02-04 00:40:00,18.3,14.5,30.04,SW,227,1.0,1.0,85,0.00,,,0.00,Wunderground v.1.13,2013-02-04 05:40:00,
2013-02-04 00:46:00,18.3,14.5,30.03,SW,227,0.0,2.0,85,0.00,,,0.00,Wunderground v.1.13,2013-02-04 05:46:00,
2013-02-04 00:52:00,18.2,14.4,30.03,SSW,196,1.0,6.0,85,0.00,,,0.00,Wunderground v.1.13,2013-02-04 05:52:00,
2013-02-04 00:57:00,18.2,14.7,30.04,SSW,198,1.0,2.0,86,0.00,,,0.00,Wunderground v.1.13,2013-02-04 05:57:00,
2013-02-04 01:03:00,18.2,14.7,30.04,SSW,199,0.0,2.0,86,0.00,,,0.00,Wunderground v.1.13,2013-02-04 06:03:00,
2013-02-04 01:09:00,18.1,14.6,30.04,SW,223,1.0,5.0,86,0.00,,,0.00,Wunderground v.1.13,2013-02-04 06:09:00,
2013-02-04 01:14:00,18.1,14.6,30.04,WSW,243,1.0,4.0,86,0.00,,,0.00,Wunderground v.1.13,2013-02-04 06:14:00,
2013-02-04 01:20:00,18.0,14.8,30.04,SW,221,2.0,2.0,87,0.00,,,0.00,Wunderground v.1.13,2013-02-04 06:20:00,
2013-02-04 01:26:00,18.0,14.8,30.04,SW,236,1.0,2.0,87,0.00,,,0.00,Wunderground v.1.13,2013-02-04 06:26:00,
2013-02-04 01:31:00,17.9,14.7,30.04,SW,228,2.0,4.0,87,0.00,,,0.00,Wunderground v.1.13,2013-02-04 06:31:00,
2013-02-04 01:37:00,17.9,14.4,30.04,West,277,2.0,3.0,86,0.00,,,0.00,Wunderground v.1.13,2013-02-04 06:37:00,
2013-02-04 01:43:00,17.9,14.4,30.04,West,262,2.0,3.0,86,0.00,,,0.00,Wunderground v.1.13,2013-02-04 06:43:00,
2013-02-04 01:49:00,17.9,14.4,30.04,WSW,252,2.0,3.0,86,0.00,,,0.00,Wunderground v.1.13,2013-02-04 06:49:00,
2013-02-04 01:54:00,17.9,14.4,30.04,WSW,252,2.0,3.0,86,0.00,,,0.00,Wunderground v.1.13,2013-02-04 06:54:00,
2013-02-04 02:00:00,17.9,14.4,30.04,SW,229,1.0,7.0,86,0.00,,,0.00,Wunderground v.1.13,2013-02-04 07:00:00,
2013-02-04 02:05:00,17.9,14.2,30.04,WSW,242,1.0,1.0,85,0.00,,,0.00,Wunderground v.1.13,2013-02-04 07:05:00,
2013-02-04 02:11:00,18.0,14.3,30.05,SW,233,1.0,2.0,85,0.00,,,0.00,Wunderground v.1.13,2013-02-04 07:11:00,
2013-02-04 02:17:00,18.0,14.3,30.05,SW,225,1.0,1.0,85,0.00,,,0.00,Wunderground v.1.13,2013-02-04 07:17:00,
2013-02-04 02:22:00,18.0,14.5,30.05,SW,229,1.0,1.0,86,0.00,,,0.00,Wunderground v.1.13,2013-02-04 07:22:00,
2013-02-04 02:28:00,18.0,14.5,30.05,SW,227,1.0,2.0,86,0.00,,,0.00,Wunderground v.1.13,2013-02-04 07:28:00,
2013-02-04 02:34:00,18.0,14.5,30.05,WSW,254,1.0,5.0,86,0.00,,,0.00,Wunderground v.1.13,2013-02-04 07:34:00,
2013-02-04 02:39:00,18.0,14.5,30.05,WSW,251,1.0,3.0,86,0.00,,,0.00,Wunderground v.1.13,2013-02-04 07:39:00,
2013-02-04 02:45:00,17.9,14.4,30.05,WSW,250,1.0,1.0,86,0.00,,,0.00,Wunderground v.1.13,2013-02-04 07:45:00,
2013-02-04 02:51:00,17.9,14.4,30.05,WSW,250,1.0,2.0,86,0.00,,,0.00,Wunderground v.1.13,2013-02-04 07:51:00,
2013-02-04 02:57:00,17.9,14.4,30.05,WSW,250,1.0,2.0,86,0.00,,,0.00,Wunderground v.1.13,2013-02-04 07:57:00,
2013-02-04 03:03:00,18.0,14.5,30.05,WSW,249,1.0,3.0,86,0.00,,,0.00,Wunderground v.1.13,2013-02-04 08:03:00,
2013-02-04 03:09:00,17.9,14.7,30.05,WSW,249,1.0,1.0,87,0.00,,,0.00,Wunderground v.1.13,2013-02-04 08:09:00,
2013-02-04 03:15:00,17.9,14.7,30.06,WSW,248,1.0,1.0,87,0.00,,,0.01,Wunderground v.1.13,2013-02-04 08:15:00,
2013-02-04 03:21:00,17.8,14.6,30.06,WSW,238,1.0,5.0,87,0.00,,,0.01,Wunderground v.1.13,2013-02-04 08:21:00,
2013-02-04 03:27:00,17.8,14.3,30.06,SSW,198,2.0,2.0,86,0.00,,,0.01,Wunderground v.1.13,2013-02-04 08:27:00,
2013-02-04 03:33:00,17.8,14.3,30.06,WSW,258,1.0,4.0,86,0.00,,,0.01,Wunderground v.1.13,2013-02-04 08:33:00,
2013-02-04 03:38:00,17.7,14.2,30.06,West,269,1.0,1.0,86,0.00,,,0.01,Wunderground v.1.13,2013-02-04 08:38:00,
2013-02-04 03:44:00,17.7,14.0,30.06,WSW,246,1.0,2.0,85,0.00,,,0.01,Wunderground v.1.13,2013-02-04 08:44:00,
2013-02-04 03:50:00,17.7,14.0,30.06,WSW,246,1.0,3.0,85,0.00,,,0.01,Wunderground v.1.13,2013-02-04 08:50:00,
2013-02-04 03:56:00,17.8,14.1,30.06,SW,227,2.0,4.0,85,0.00,,,0.01,Wunderground v.1.13,2013-02-04 08:56:00,
2013-02-04 04:01:00,17.9,13.9,30.06,SW,230,3.0,3.0,84,0.00,,,0.01,Wunderground v.1.13,2013-02-04 09:01:00,
2013-02-04 04:07:00,17.9,13.6,30.06,SW,234,1.0,3.0,83,0.00,,,0.01,Wunderground v.1.13,2013-02-04 09:07:00,
2013-02-04 04:13:00,17.9,13.6,30.06,WSW,244,1.0,5.0,83,0.00,,,0.01,Wunderground v.1.13,2013-02-04 09:13:00,
2013-02-04 04:19:00,18.0,13.2,30.06,WSW,238,1.0,5.0,81,0.00,,,0.01,Wunderground v.1.13,2013-02-04 09:19:00,
2013-02-04 04:25:00,18.0,13.2,30.06,WSW,241,1.0,1.0,81,0.00,,,0.01,Wunderground v.1.13,2013-02-04 09:25:00,
2013-02-04 04:30:00,18.0,12.9,30.06,WSW,238,1.0,1.0,80,0.00,,,0.01,Wunderground v.1.13,2013-02-04 09:30:00,
2013-02-04 04:36:00,18.1,13.0,30.06,West,269,1.0,1.0,80,0.00,,,0.01,Wunderground v.1.13,2013-02-04 09:36:00,
2013-02-04 04:42:00,18.1,13.0,30.06,West,271,1.0,4.0,80,0.00,,,0.01,Wunderground v.1.13,2013-02-04 09:42:00,
2013-02-04 04:48:00,18.1,13.0,30.07,West,271,0.0,0.0,80,0.00,,,0.01,Wunderground v.1.13,2013-02-04 09:48:00,
2013-02-04 04:54:00,18.1,13.0,30.07,West,271,0.0,2.0,80,0.00,,,0.01,Wunderground v.1.13,2013-02-04 09:54:00,
2013-02-04 05:00:00,18.1,13.0,30.07,West,271,1.0,1.0,80,0.00,,,0.01,Wunderground v.1.13,2013-02-04 10:00:00,
2013-02-04 05:05:00,18.1,13.0,30.07,West,271,0.0,3.0,80,0.00,,,0.01,Wunderground v.1.13,2013-02-04 10:05:00,
2013-02-04 05:11:00,18.2,13.1,30.07,West,271,1.0,3.0,80,0.00,,,0.01,Wunderground v.1.13,2013-02-04 10:11:00,
2013-02-04 05:17:00,18.2,13.3,30.07,West,271,0.0,3.0,81,0.00,,,0.01,Wunderground v.1.13,2013-02-04 10:17:00,
2013-02-04 05:22:00,18.1,13.3,30.08,West,271,0.0,3.0,81,0.00,,,0.01,Wunderground v.1.13,2013-02-04 10:22:00,
2013-02-04 05:28:00,18.1,13.3,30.08,West,271,0.0,3.0,81,0.00,,,0.01,Wunderground v.1.13,2013-02-04 10:28:00,
2013-02-04 05:34:00,18.1,13.5,30.08,West,271,0.0,3.0,82,0.00,,,0.01,Wunderground v.1.13,2013-02-04 10:34:00,
2013-02-04 05:40:00,18.1,13.5,30.09,West,271,0.0,3.0,82,0.00,,,0.01,Wunderground v.1.13,2013-02-04 10:40:00,
2013-02-04 05:45:00,18.0,13.7,30.09,West,271,0.0,3.0,83,0.00,,,0.01,Wunderground v.1.13,2013-02-04 10:45:00,
2013-02-04 05:51:00,17.9,13.6,30.09,WSW,252,1.0,3.0,83,0.00,,,0.01,Wunderground v.1.13,2013-02-04 10:51:00,
2013-02-04 05:57:00,17.8,13.5,30.09,WSW,248,2.0,6.0,83,0.00,,,0.01,Wunderground v.1.13,2013-02-04 10:57:00,
2013-02-04 06:03:00,17.8,13.2,30.09,WSW,249,2.0,4.0,82,0.00,,,0.01,Wunderground v.1.13,2013-02-04 11:03:00,
2013-02-04 06:09:00,17.8,13.2,30.09,WSW,248,1.0,2.0,82,0.00,,,0.01,Wunderground v.1.13,2013-02-04 11:09:00,
2013-02-04 06:14:00,17.8,13.2,30.09,WSW,248,0.0,2.0,82,0.00,,,0.01,Wunderground v.1.13,2013-02-04 11:14:00,
2013-02-04 06:19:00,17.8,13.0,30.09,WSW,248,1.0,2.0,81,0.00,,,0.01,Wunderground v.1.13,2013-02-04 11:19:00,
2013-02-04 06:25:00,17.8,13.0,30.09,WSW,248,1.0,1.0,81,0.00,,,0.01,Wunderground v.1.13,2013-02-04 11:25:00,
2013-02-04 06:31:00,17.9,13.1,30.09,WSW,249,1.0,2.0,81,0.00,,,0.01,Wunderground v.1.13,2013-02-04 11:31:00,
2013-02-04 06:37:00,17.9,13.1,30.09,WSW,249,1.0,2.0,81,0.00,,,0.01,Wunderground v.1.13,2013-02-04 11:37:00,
2013-02-04 06:43:00,17.9,13.1,30.10,WSW,249,0.0,3.0,81,0.00,,,0.01,Wunderground v.1.13,2013-02-04 11:43:00,
2013-02-04 06:48:00,17.9,13.1,30.10,WSW,249,0.0,2.0,81,0.00,,,0.01,Wunderground v.1.13,2013-02-04 11:48:00,
2013-02-04 06:54:00,17.8,12.7,30.10,WSW,244,1.0,7.0,80,0.00,,,0.01,Wunderground v.1.13,2013-02-04 11:54:00,
2013-02-04 06:59:00,17.8,12.7,30.10,WSW,245,2.0,3.0,80,0.00,,,0.01,Wunderground v.1.13,2013-02-04 11:59:00,
2013-02-04 07:05:00,-999.9,-99.9,30.09,WSW,245,1.0,1.0,255,-99.99,,,0.01,Wunderground v.1.13,2013-02-04 12:05:00,
2013-02-04 07:11:00,-999.9,-99.9,30.09,WSW,237,0.0,9.0,255,-99.99,,,0.01,Wunderground v.1.13,2013-02-04 12:11:00,
2013-02-04 07:16:00,-999.9,-99.9,30.09,WSW,245,1.0,2.0,255,-99.99,,,0.01,Wunderground v.1.13,2013-02-04 12:16:00,
2013-02-04 07:22:00,-999.9,-99.9,30.09,WSW,245,1.0,3.0,255,-99.99,,,0.01,Wunderground v.1.13,2013-02-04 12:22:00,
2013-02-04 07:28:00,-999.9,-99.9,30.09,WSW,245,1.0,4.0,255,-99.99,,,0.01,Wunderground v.1.13,2013-02-04 12:28:00,
2013-02-04 07:34:00,-999.9,-99.9,30.09,WSW,245,1.0,1.0,255,-99.99,,,0.01,Wunderground v.1.13,2013-02-04 12:34:00,
2013-02-04 07:40:00,-999.9,-99.9,30.09,WSW,245,0.0,0.0,255,-99.99,,,0.01,Wunderground v.1.13,2013-02-04 12:40:00,
2013-02-04 07:45:00,-999.9,-99.9,30.08,WSW,246,1.0,1.0,255,-99.99,,,0.01,Wunderground v.1.13,2013-02-04 12:45:00,
2013-02-04 07:51:00,-999.9,-99.9,30.08,WSW,246,0.0,0.0,255,-99.99,,,0.01,Wunderground v.1.13,2013-02-04 12:51:00,
2013-02-04 07:57:00,18.1,12.4,30.08,WSW,246,0.0,0.0,78,0.00,,,0.01,Wunderground v.1.13,2013-02-04 12:57:00,
2013-02-04 08:03:00,18.2,12.8,30.08,WSW,246,0.0,1.0,79,0.00,,,0.00,Wunderground v.1.13,2013-02-04 13:03:00,
2013-02-04 08:08:00,18.3,12.6,30.08,WSW,246,0.0,0.0,78,0.00,,,0.00,Wunderground v.1.13,2013-02-04 13:08:00,
2013-02-04 08:13:00,18.2,12.5,30.08,WSW,246,0.0,2.0,78,0.00,,,0.00,Wunderground v.1.13,2013-02-04 13:13:00,
2013-02-04 08:19:00,18.2,12.5,30.09,WSW,246,0.0,0.0,78,0.00,,,0.00,Wunderground v.1.13,2013-02-04 13:19:00,
2013-02-04 08:25:00,18.3,12.6,30.09,WSW,246,0.0,1.0,78,0.00,,,0.00,Wunderground v.1.13,2013-02-04 13:25:00,
2013-02-04 08:31:00,18.5,12.8,30.08,WSW,246,1.0,1.0,78,0.00,,,0.00,Wunderground v.1.13,2013-02-04 13:31:00,
2013-02-04 08:36:00,18.7,13.0,30.08,WSW,246,0.0,2.0,78,0.00,,,0.00,Wunderground v.1.13,2013-02-04 13:36:00,
2013-02-04 08:42:00,18.9,12.9,30.08,WSW,246,0.0,2.0,77,0.00,,,0.00,Wunderground v.1.13,2013-02-04 13:42:00,
2013-02-04 08:48:00,19.0,13.0,30.08,WSW,237,1.0,1.0,77,0.00,,,0.00,Wunderground v.1.13,2013-02-04 13:48:00,
2013-02-04 08:54:00,19.3,13.3,30.08,WSW,238,1.0,3.0,77,0.00,,,0.00,Wunderground v.1.13,2013-02-04 13:54:00,
2013-02-04 08:59:00,19.5,13.2,30.07,WSW,238,1.0,2.0,76,0.00,,,0.00,Wunderground v.1.13,2013-02-04 13:59:00,
2013-02-04 09:05:00,19.7,13.4,30.07,WSW,238,1.0,1.0,76,0.00,,,0.00,Wunderground v.1.13,2013-02-04 14:05:00,
2013-02-04 09:11:00,20.2,13.8,30.07,WSW,239,1.0,3.0,76,0.00,,,0.00,Wunderground v.1.13,2013-02-04 14:11:00,
2013-02-04 09:17:00,20.9,13.9,30.07,WSW,240,2.0,2.0,74,0.00,,,0.00,Wunderground v.1.13,2013-02-04 14:17:00,
2013-02-04 09:22:00,21.3,14.3,30.07,WSW,240,2.0,3.0,74,0.00,,,0.00,Wunderground v.1.13,2013-02-04 14:22:00,
2013-02-04 09:28:00,21.9,15.2,30.07,SW,227,2.0,3.0,75,0.00,,,0.00,Wunderground v.1.13,2013-02-04 14:28:00,
2013-02-04 09:34:00,22.4,15.4,30.07,SW,227,1.0,3.0,74,0.00,,,0.00,Wunderground v.1.13,2013-02-04 14:34:00,
2013-02-04 09:40:00,22.8,15.4,30.07,SW,232,1.0,1.0,73,0.00,,,0.00,Wunderground v.1.13,2013-02-04 14:40:00,
2013-02-04 09:45:00,23.4,16.3,30.06,SW,232,0.0,0.0,74,0.00,,,0.00,Wunderground v.1.13,2013-02-04 14:45:00,
2013-02-04 09:51:00,23.9,16.5,30.06,SW,232,0.0,0.0,73,0.00,,,0.00,Wunderground v.1.13,2013-02-04 14:51:00,
2013-02-04 09:57:00,24.0,16.3,30.06,SW,232,1.0,1.0,72,0.00,,,0.00,Wunderground v.1.13,2013-02-04 14:57:00,
2013-02-04 10:03:00,24.1,16.4,30.06,SW,217,1.0,1.0,72,0.00,,,0.00,Wunderground v.1.13,2013-02-04 15:03:00,
2013-02-04 10:09:00,24.1,16.4,30.06,WSW,248,1.0,4.0,72,0.00,,,0.00,Wunderground v.1.13,2013-02-04 15:09:00,
2013-02-04 10:15:00,24.1,16.4,30.05,West,266,1.0,3.0,72,0.00,,,0.00,Wunderground v.1.13,2013-02-04 15:15:00,
2013-02-04 10:21:00,24.6,16.9,30.05,West,259,1.0,4.0,72,0.00,,,0.00,Wunderground v.1.13,2013-02-04 15:21:00,
2013-02-04 10:27:00,24.8,16.4,30.04,WSW,257,1.0,2.0,70,0.00,,,0.00,Wunderground v.1.13,2013-02-04 15:27:00,
2013-02-04 10:33:00,24.1,15.7,30.04,West,259,2.0,2.0,70,0.00,,,0.00,Wunderground v.1.13,2013-02-04 15:33:00,
2013-02-04 10:38:00,24.0,16.0,30.04,WSW,257,2.0,2.0,71,0.00,,,0.00,Wunderground v.1.13,2013-02-04 15:38:00,
2013-02-04 10:44:00,24.4,16.3,30.03,WSW,253,1.0,3.0,71,0.00,,,0.00,Wunderground v.1.13,2013-02-04 15:44:00,
2013-02-04 10:50:00,24.4,16.0,30.02,WNW,290,2.0,2.0,70,0.00,,,0.00,Wunderground v.1.13,2013-02-04 15:50:00,
2013-02-04 10:56:00,24.7,16.0,30.02,WNW,299,2.0,5.0,69,0.00,,,0.00,Wunderground v.1.13,2013-02-04 15:56:00,
2013-02-04 11:02:00,24.8,15.7,30.03,WSW,248,2.0,3.0,68,0.00,,,0.00,Wunderground v.1.13,2013-02-04 16:02:00,
2013-02-04 11:08:00,25.0,16.3,30.03,WSW,243,2.0,4.0,69,0.00,,,0.00,Wunderground v.1.13,2013-02-04 16:08:00,
2013-02-04 11:14:00,25.3,16.2,30.02,West,276,1.0,7.0,68,0.00,,,0.00,Wunderground v.1.13,2013-02-04 16:14:00,
2013-02-04 11:20:00,25.3,15.5,30.02,WSW,239,3.0,7.0,66,0.00,,,0.00,Wunderground v.1.13,2013-02-04 16:20:00,
2013-02-04 11:25:00,25.6,16.5,30.03,WSW,255,4.0,4.0,68,0.00,,,0.00,Wunderground v.1.13,2013-02-04 16:25:00,
2013-02-04 11:31:00,25.5,15.7,30.02,WSW,244,2.0,3.0,66,0.00,,,0.00,Wunderground v.1.13,2013-02-04 16:31:00,
2013-02-04 11:37:00,25.8,15.6,30.02,SW,225,2.0,3.0,65,0.00,,,0.00,Wunderground v.1.13,2013-02-04 16:37:00,
2013-02-04 11:43:00,26.8,16.6,30.02,SW,234,2.0,4.0,65,0.00,,,0.00,Wunderground v.1.13,2013-02-04 16:43:00,
2013-02-04 11:49:00,27.3,16.7,30.02,WSW,253,2.0,9.0,64,0.00,,,0.00,Wunderground v.1.13,2013-02-04 16:49:00,
2013-02-04 11:55:00,26.9,16.3,30.01,WNW,296,2.0,3.0,64,0.00,,,0.00,Wunderground v.1.13,2013-02-04 16:55:00,
2013-02-04 12:01:00,27.1,16.5,30.01,WNW,294,2.0,3.0,64,0.00,,,0.00,Wunderground v.1.13,2013-02-04 17:01:00,
2013-02-04 12:07:00,27.0,16.4,30.00,WNW,283,2.0,8.0,64,0.00,,,0.00,Wunderground v.1.13,2013-02-04 17:07:00,
2013-02-04 12:13:00,27.3,16.7,30.00,WSW,250,3.0,5.0,64,0.00,,,0.00,Wunderground v.1.13,2013-02-04 17:13:00,
2013-02-04 12:19:00,27.5,16.9,30.00,WNW,288,3.0,7.0,64,0.00,,,0.00,Wunderground v.1.13,2013-02-04 17:19:00,
2013-02-04 12:25:00,27.4,16.8,29.99,WSW,255,2.0,6.0,64,0.00,,,0.00,Wunderground v.1.13,2013-02-04 17:25:00,
2013-02-04 12:31:00,27.6,17.4,29.99,WSW,242,2.0,5.0,65,0.00,,,0.00,Wunderground v.1.13,2013-02-04 17:31:00,
2013-02-04 12:37:00,27.6,17.0,29.99,WSW,246,2.0,6.0,64,0.00,,,0.00,Wunderground v.1.13,2013-02-04 17:37:00,
2013-02-04 12:42:00,27.6,16.6,29.99,WSW,249,2.0,5.0,63,0.00,,,0.00,Wunderground v.1.13,2013-02-04 17:42:00,
2013-02-04 12:48:00,28.3,17.7,29.99,WSW,254,1.0,5.0,64,0.00,,,0.00,Wunderground v.1.13,2013-02-04 17:48:00,
2013-02-04 12:54:00,28.1,17.1,29.99,SSW,196,3.0,5.0,63,0.00,,,0.00,Wunderground v.1.13,2013-02-04 17:54:00,
2013-02-04 13:00:00,27.6,17.0,29.99,WSW,250,3.0,3.0,64,0.00,,,0.00,Wunderground v.1.13,2013-02-04 18:00:00,
2013-02-04 13:05:00,27.8,17.6,29.98,WNW,288,3.0,3.0,65,0.00,,,0.00,Wunderground v.1.13,2013-02-04 18:05:00,
2013-02-04 13:11:00,28.2,17.6,29.98,WSW,239,2.0,6.0,64,0.00,,,0.00,Wunderground v.1.13,2013-02-04 18:11:00,
2013-02-04 13:17:00,28.4,18.1,29.99,WSW,250,2.0,6.0,65,0.00,,,0.00,Wunderground v.1.13,2013-02-04 18:17:00,
2013-02-04 13:22:00,28.4,18.1,29.98,WSW,254,2.0,6.0,65,0.00,,,0.00,Wunderground v.1.13,2013-02-04 18:22:00,
2013-02-04 13:28:00,28.0,18.1,29.98,WSW,252,3.0,6.0,66,0.00,,,0.00,Wunderground v.1.13,2013-02-04 18:28:00,
2013-02-04 13:34:00,28.0,18.1,29.98,WSW,252,2.0,6.0,66,0.00,,,0.00,Wunderground v.1.13,2013-02-04 18:34:00,
2013-02-04 13:40:00,27.9,18.7,29.98,WNW,286,1.0,6.0,68,0.00,,,0.00,Wunderground v.1.13,2013-02-04 18:40:00,
2013-02-04 13:46:00,27.9,19.4,29.98,West,271,2.0,6.0,70,0.00,,,0.00,Wunderground v.1.13,2013-02-04 18:46:00,
2013-02-04 13:52:00,28.0,19.1,29.97,West,280,2.0,6.0,69,0.00,,,0.00,Wunderground v.1.13,2013-02-04 18:52:00,
2013-02-04 13:58:00,28.0,19.8,29.97,West,280,1.0,6.0,71,0.00,,,0.00,Wunderground v.1.13,2013-02-04 18:58:00,
2013-02-04 14:03:00,28.4,20.2,29.97,West,280,0.0,6.0,71,0.00,,,0.00,Wunderground v.1.13,2013-02-04 19:03:00,
2013-02-04 14:09:00,28.1,20.6,29.97,West,280,0.0,3.0,73,0.00,,,0.00,Wunderground v.1.13,2013-02-04 19:09:00,
2013-02-04 14:15:00,27.8,19.6,29.96,West,280,1.0,1.0,71,0.00,,,0.00,Wunderground v.1.13,2013-02-04 19:15:00,
2013-02-04 14:21:00,27.9,20.0,29.96,West,280,0.0,1.0,72,0.00,,,0.00,Wunderground v.1.13,2013-02-04 19:21:00,
2013-02-04 14:26:00,27.9,20.0,29.96,West,280,0.0,2.0,72,0.00,,,0.00,Wunderground v.1.13,2013-02-04 19:26:00,
2013-02-04 14:32:00,27.8,20.3,29.96,West,280,0.0,3.0,73,0.00,,,0.00,Wunderground v.1.13,2013-02-04 19:32:00,
2013-02-04 14:38:00,27.4,20.5,29.96,West,280,1.0,3.0,75,0.00,,,0.00,Wunderground v.1.13,2013-02-04 19:38:00,
2013-02-04 14:44:00,27.5,21.2,29.96,West,280,1.0,1.0,77,0.00,,,0.00,Wunderground v.1.13,2013-02-04 19:44:00,
2013-02-04 14:50:00,27.1,21.2,29.96,West,280,0.0,1.0,78,0.00,,,0.00,Wunderground v.1.13,2013-02-04 19:50:00,
2013-02-04 14:55:00,26.8,21.5,29.96,West,280,0.0,1.0,80,0.00,,,0.00,Wunderground v.1.13,2013-02-04 19:55:00,
2013-02-04 15:01:00,26.6,21.6,29.96,West,280,0.0,1.0,81,0.00,,,0.00,Wunderground v.1.13,2013-02-04 20:01:00,
2013-02-04 15:07:00,26.6,21.6,29.96,West,280,0.0,1.0,81,0.00,,,0.00,Wunderground v.1.13,2013-02-04 20:07:00,
2013-02-04 15:12:00,26.4,21.7,29.96,West,280,0.0,1.0,82,0.00,,,0.00,Wunderground v.1.13,2013-02-04 20:12:00,
2013-02-04 15:18:00,26.5,22.3,29.95,West,280,0.0,1.0,84,0.00,,,0.00,Wunderground v.1.13,2013-02-04 20:18:00,
2013-02-04 15:24:00,26.3,21.8,29.95,West,280,0.0,1.0,83,0.00,,,0.00,Wunderground v.1.13,2013-02-04 20:24:00,
2013-02-04 15:30:00,26.5,22.0,29.95,West,280,0.0,1.0,83,0.00,,,0.00,Wunderground v.1.13,2013-02-04 20:30:00,
2013-02-04 15:36:00,26.5,22.3,29.95,West,280,0.0,1.0,84,0.00,,,0.00,Wunderground v.1.13,2013-02-04 20:36:00,
2013-02-04 15:41:00,26.5,22.3,29.95,West,280,0.0,1.0,84,0.00,,,0.00,Wunderground v.1.13,2013-02-04 20:41:00,
2013-02-04 15:47:00,26.5,22.6,29.95,West,280,0.0,1.0,85,0.00,,,0.00,Wunderground v.1.13,2013-02-04 20:47:00,
2013-02-04 15:52:00,26.5,22.6,29.94,West,280,0.0,1.0,85,0.00,,,0.00,Wunderground v.1.13,2013-02-04 20:52:00,
2013-02-04 15:58:00,26.5,22.6,29.94,West,280,0.0,1.0,85,0.00,,,0.00,Wunderground v.1.13,2013-02-04 20:58:00,
2013-02-04 16:04:00,26.2,22.6,29.93,West,280,0.0,1.0,86,0.00,,,0.00,Wunderground v.1.13,2013-02-04 21:04:00,
2013-02-04 16:10:00,26.4,22.8,29.93,West,280,0.0,0.0,86,0.00,,,0.00,Wunderground v.1.13,2013-02-04 21:10:00,
2013-02-04 16:15:00,26.3,22.7,29.92,West,280,0.0,0.0,86,0.00,,,0.00,Wunderground v.1.13,2013-02-04 21:15:00,
2013-02-04 16:21:00,26.1,22.5,29.92,West,280,0.0,0.0,86,0.00,,,0.00,Wunderground v.1.13,2013-02-04 21:21:00,
2013-02-04 16:27:00,26.2,22.9,29.92,West,280,0.0,0.0,87,0.00,,,0.00,Wunderground v.1.13,2013-02-04 21:27:00,
2013-02-04 16:33:00,26.3,23.0,29.92,West,280,0.0,0.0,87,0.00,,,0.00,Wunderground v.1.13,2013-02-04 21:33:00,
2013-02-04 16:38:00,26.4,23.1,29.91,West,280,0.0,0.0,87,0.00,,,0.00,Wunderground v.1.13,2013-02-04 21:38:00,
2013-02-04 16:44:00,26.2,23.1,29.91,West,280,0.0,0.0,88,0.00,,,0.00,Wunderground v.1.13,2013-02-04 21:44:00,
2013-02-04 16:50:00,26.1,23.0,29.91,West,280,0.0,0.0,88,0.00,,,0.00,Wunderground v.1.13,2013-02-04 21:50:00,
2013-02-04 16:56:00,26.1,23.3,29.91,West,280,0.0,0.0,89,0.00,,,0.00,Wunderground v.1.13,2013-02-04 21:56:00,
2013-02-04 17:01:00,26.0,23.2,29.91,West,280,0.0,0.0,89,0.00,,,0.00,Wunderground v.1.13,2013-02-04 22:01:00,
2013-02-04 17:07:00,26.0,23.2,29.91,West,280,0.0,0.0,89,0.00,,,0.00,Wunderground v.1.13,2013-02-04 22:07:00,
2013-02-04 17:13:00,25.9,23.4,29.91,West,280,0.0,0.0,90,0.00,,,0.00,Wunderground v.1.13,2013-02-04 22:13:00,
2013-02-04 17:19:00,25.9,23.4,29.90,West,280,0.0,0.0,90,0.00,,,0.00,Wunderground v.1.13,2013-02-04 22:19:00,
2013-02-04 17:25:00,25.9,23.4,29.90,West,280,0.0,0.0,90,0.00,,,0.00,Wunderground v.1.13,2013-02-04 22:25:00,
2013-02-04 17:31:00,25.8,23.3,29.90,West,280,0.0,0.0,90,0.00,,,0.00,Wunderground v.1.13,2013-02-04 22:31:00,
2013-02-04 17:37:00,25.8,23.3,29.90,West,280,0.0,0.0,90,0.00,,,0.00,Wunderground v.1.13,2013-02-04 22:37:00,
2013-02-04 17:43:00,25.8,23.5,29.90,West,280,0.0,0.0,91,0.00,,,0.00,Wunderground v.1.13,2013-02-04 22:43:00,
2013-02-04 17:49:00,25.7,23.4,29.90,West,280,0.0,0.0,91,0.00,,,0.00,Wunderground v.1.13,2013-02-04 22:49:00,
2013-02-04 17:54:00,25.7,23.4,29.90,West,280,0.0,0.0,91,0.00,,,0.00,Wunderground v.1.13,2013-02-04 22:54:00,
2013-02-04 17:59:00,25.7,23.4,29.90,West,280,0.0,0.0,91,0.00,,,0.00,Wunderground v.1.13,2013-02-04 22:59:00,
2013-02-04 18:05:00,25.6,23.3,29.89,West,280,0.0,0.0,91,0.00,,,0.00,Wunderground v.1.13,2013-02-04 23:05:00,
2013-02-04 18:11:00,25.6,23.3,29.89,West,280,0.0,0.0,91,0.00,,,0.00,Wunderground v.1.13,2013-02-04 23:11:00,
2013-02-04 18:17:00,25.6,23.3,29.90,West,280,0.0,0.0,91,0.00,,,0.00,Wunderground v.1.13,2013-02-04 23:17:00,
2013-02-04 18:22:00,25.6,23.3,29.90,West,280,0.0,0.0,91,0.00,,,0.00,Wunderground v.1.13,2013-02-04 23:22:00,
2013-02-04 18:28:00,25.6,23.3,29.90,West,280,0.0,1.0,91,0.00,,,0.00,Wunderground v.1.13,2013-02-04 23:28:00,
2013-02-04 18:34:00,25.6,23.3,29.90,West,280,0.0,1.0,91,0.00,,,0.00,Wunderground v.1.13,2013-02-04 23:34:00,
2013-02-04 18:40:00,25.5,23.5,29.90,West,280,0.0,0.0,92,0.00,,,0.00,Wunderground v.1.13,2013-02-04 23:40:00,
2013-02-04 18:46:00,25.5,23.5,29.90,West,280,0.0,0.0,92,0.00,,,0.00,Wunderground v.1.13,2013-02-04 23:46:00,
2013-02-04 18:51:00,25.5,23.5,29.90,West,280,0.0,0.0,92,0.00,,,0.00,Wunderground v.1.13,2013-02-04 23:51:00,
2013-02-04 18:56:00,25.4,23.4,29.91,West,280,0.0,0.0,92,0.00,,,0.00,Wunderground v.1.13,2013-02-04 23:56:00,
2013-02-04 19:02:00,25.5,23.5,29.91,West,280,0.0,0.0,92,0.00,,,0.00,Wunderground v.1.13,2013-02-05 00:02:00,
2013-02-04 19:07:00,25.4,23.4,29.91,West,280,0.0,0.0,92,0.00,,,0.00,Wunderground v.1.13,2013-02-05 00:07:00,
2013-02-04 19:13:00,25.4,23.4,29.91,West,280,0.0,0.0,92,0.00,,,0.00,Wunderground v.1.13,2013-02-05 00:13:00,
2013-02-04 19:19:00,25.5,23.5,29.91,West,280,0.0,0.0,92,0.00,,,0.00,Wunderground v.1.13,2013-02-05 00:19:00,
2013-02-04 19:25:00,25.4,23.4,29.91,West,280,0.0,0.0,92,0.00,,,0.00,Wunderground v.1.13,2013-02-05 00:25:00,
2013-02-04 19:31:00,25.4,23.4,29.91,West,280,0.0,0.0,92,0.00,,,0.00,Wunderground v.1.13,2013-02-05 00:31:00,
2013-02-04 19:37:00,25.4,23.4,29.91,West,280,0.0,0.0,92,0.00,,,0.00,Wunderground v.1.13,2013-02-05 00:37:00,
2013-02-04 19:43:00,25.3,23.3,29.91,West,280,0.0,0.0,92,0.00,,,0.00,Wunderground v.1.13,2013-02-05 00:43:00,
2013-02-04 19:49:00,25.3,23.3,29.91,West,280,0.0,0.0,92,0.00,,,0.00,Wunderground v.1.13,2013-02-05 00:49:00,
2013-02-04 19:54:00,25.3,23.3,29.91,West,280,0.0,1.0,92,0.00,,,0.00,Wunderground v.1.13,2013-02-05 00:54:00,
2013-02-04 19:59:00,25.3,23.3,29.91,West,280,0.0,1.0,92,0.00,,,0.00,Wunderground v.1.13,2013-02-05 00:59:00,
2013-02-04 20:05:00,25.3,23.3,29.91,West,280,0.0,0.0,92,0.00,,,0.00,Wunderground v.1.13,2013-02-05 01:05:00,
2013-02-04 20:11:00,25.3,23.3,29.90,West,280,0.0,0.0,92,0.00,,,0.00,Wunderground v.1.13,2013-02-05 01:11:00,
2013-02-04 20:16:00,25.3,23.3,29.90,West,280,0.0,0.0,92,0.00,,,0.00,Wunderground v.1.13,2013-02-05 01:16:00,
2013-02-04 20:22:00,25.3,23.3,29.90,West,280,0.0,0.0,92,0.00,,,0.00,Wunderground v.1.13,2013-02-05 01:22:00,
2013-02-04 20:27:00,25.4,23.4,29.90,West,280,0.0,0.0,92,0.00,,,0.00,Wunderground v.1.13,2013-02-05 01:27:00,
2013-02-04 20:33:00,25.4,23.4,29.90,West,280,0.0,0.0,92,0.00,,,0.00,Wunderground v.1.13,2013-02-05 01:33:00,
2013-02-04 20:39:00,25.4,23.4,29.91,West,280,0.0,0.0,92,0.00,,,0.00,Wunderground v.1.13,2013-02-05 01:39:00,
2013-02-04 20:45:00,25.4,23.4,29.90,West,280,0.0,0.0,92,0.00,,,0.00,Wunderground v.1.13,2013-02-05 01:45:00,
2013-02-04 20:50:00,25.5,23.5,29.90,West,280,0.0,0.0,92,0.00,,,0.00,Wunderground v.1.13,2013-02-05 01:50:00,
2013-02-04 20:56:00,25.5,23.5,29.90,West,280,0.0,0.0,92,0.00,,,0.00,Wunderground v.1.13,2013-02-05 01:56:00,
2013-02-04 21:01:00,25.6,23.9,29.90,West,280,0.0,0.0,93,0.00,,,0.00,Wunderground v.1.13,2013-02-05 02:01:00,
2013-02-04 21:06:00,25.6,23.6,29.89,West,280,0.0,0.0,92,0.00,,,0.00,Wunderground v.1.13,2013-02-05 02:06:00,
2013-02-04 21:11:00,25.7,23.7,29.89,West,280,0.0,1.0,92,0.00,,,0.00,Wunderground v.1.13,2013-02-05 02:11:00,
2013-02-04 21:16:00,25.7,23.7,29.89,West,280,0.0,0.0,92,0.00,,,0.00,Wunderground v.1.13,2013-02-05 02:16:00,
2013-02-04 21:22:00,25.7,23.7,29.89,West,280,0.0,0.0,92,0.00,,,0.00,Wunderground v.1.13,2013-02-05 02:22:00,
2013-02-04 21:28:00,25.8,23.8,29.89,West,280,0.0,0.0,92,0.00,,,0.00,Wunderground v.1.13,2013-02-05 02:28:00,
2013-02-04 21:34:00,25.8,23.8,29.89,West,280,0.0,0.0,92,0.00,,,0.00,Wunderground v.1.13,2013-02-05 02:34:00,
2013-02-04 21:40:00,25.8,24.1,29.90,West,280,0.0,0.0,93,0.00,,,0.00,Wunderground v.1.13,2013-02-05 02:40:00,
2013-02-04 21:46:00,25.9,23.9,29.89,West,280,0.0,0.0,92,0.00,,,0.00,Wunderground v.1.13,2013-02-05 02:46:00,
2013-02-04 21:52:00,25.9,23.9,29.89,West,280,0.0,0.0,92,0.00,,,0.00,Wunderground v.1.13,2013-02-05 02:52:00,
2013-02-04 21:58:00,26.1,24.4,29.88,West,273,0.0,1.0,93,0.00,,,0.00,Wunderground v.1.13,2013-02-05 02:58:00,
2013-02-04 22:03:00,26.6,24.8,29.88,West,271,1.0,3.0,93,0.00,,,0.00,Wunderground v.1.13,2013-02-05 03:03:00,
2013-02-04 22:09:00,27.3,25.5,29.88,West,271,0.0,1.0,93,0.00,,,0.00,Wunderground v.1.13,2013-02-05 03:09:00,
2013-02-04 22:15:00,28.0,26.5,29.88,West,267,1.0,1.0,94,0.00,,,0.00,Wunderground v.1.13,2013-02-05 03:15:00,
2013-02-04 22:21:00,28.5,27.0,29.88,West,266,1.0,1.0,94,0.00,,,0.00,Wunderground v.1.13,2013-02-05 03:21:00,
2013-02-04 22:26:00,29.0,27.5,29.88,West,265,0.0,1.0,94,0.00,,,0.00,Wunderground v.1.13,2013-02-05 03:26:00,
2013-02-04 22:32:00,29.5,28.0,29.88,West,265,0.0,1.0,94,0.00,,,0.00,Wunderground v.1.13,2013-02-05 03:32:00,
2013-02-04 22:38:00,29.9,28.4,29.88,West,265,0.0,1.0,94,0.00,,,0.00,Wunderground v.1.13,2013-02-05 03:38:00,
2013-02-04 22:44:00,30.2,28.7,29.88,West,265,0.0,2.0,94,0.00,,,0.00,Wunderground v.1.13,2013-02-05 03:44:00,
2013-02-04 22:50:00,30.5,28.7,29.88,West,264,0.0,1.0,93,0.00,,,0.00,Wunderground v.1.13,2013-02-05 03:50:00,
2013-02-04 22:55:00,30.7,29.2,29.89,WSW,246,1.0,1.0,94,0.00,,,0.00,Wunderground v.1.13,2013-02-05 03:55:00,
2013-02-04 23:01:00,30.9,29.1,29.89,WSW,246,1.0,1.0,93,0.00,,,0.00,Wunderground v.1.13,2013-02-05 04:01:00,
2013-02-04 23:07:00,31.1,29.3,29.89,WSW,246,0.0,1.0,93,0.00,,,0.00,Wunderground v.1.13,2013-02-05 04:07:00,
2013-02-04 23:13:00,31.3,29.5,29.88,WSW,246,0.0,3.0,93,0.00,,,0.00,Wunderground v.1.13,2013-02-05 04:13:00,
2013-02-04 23:19:00,31.5,29.7,29.88,SW,236,1.0,3.0,93,0.00,,,0.00,Wunderground v.1.13,2013-02-05 04:19:00,
2013-02-04 23:24:00,31.6,29.5,29.88,SW,236,1.0,1.0,92,0.00,,,0.00,Wunderground v.1.13,2013-02-05 04:24:00,
2013-02-04 23:30:00,31.7,29.6,29.88,SW,236,0.0,1.0,92,0.00,,,0.00,Wunderground v.1.13,2013-02-05 04:30:00,
2013-02-04 23:35:00,31.7,29.6,29.88,SW,236,0.0,1.0,92,0.00,,,0.00,Wunderground v.1.13,2013-02-05 04:35:00,
2013-02-04 23:40:00,31.7,29.6,29.88,SW,236,1.0,1.0,92,0.00,,,0.00,Wunderground v.1.13,2013-02-05 04:40:00,
2013-02-04 23:46:00,31.8,29.7,29.88,SW,236,1.0,3.0,92,0.00,,,0.00,Wunderground v.1.13,2013-02-05 04:46:00,
2013-02-04 23:51:00,31.8,29.7,29.88,SW,236,1.0,1.0,92,0.00,,,0.00,Wunderground v.1.13,2013-02-05 04:51:00,
2013-02-04 23:56:00,31.8,29.5,29.87,SW,236,0.0,1.0,91,0.00,,,0.00,Wunderground v.1.13,2013-02-05 04:56:00,